| time (UTC) | temp F | wind direction | speed knots | gust knots | rain 1hr in | rain 24hr in | rain mn in | humidity % | barometer mb |
| 20260507065901 | 56 | 315 | 0.0 | 0.0 | 0.00 | 0.16 | 0.00 | 92 | 1012.3 |
| 20260507064900 | 55 | 22 | 0.9 | 0.9 | 0.00 | 0.16 | 0.00 | 93 | 1012.2 |
| 20260507064402 | 55 | 112 | 0.0 | 1.7 | 0.00 | 0.16 | 0.00 | 93 | 1012.1 |
| 20260507063900 | 55 | 0 | 0.0 | 0.0 | 0.00 | 0.16 | 0.00 | 93 | 1012.2 |
| 20260507063618 | 54 | 337 | 0.0 | 0.0 | 0.00 | 0.16 | 0.00 | 93 | 1012.2 |
| 20260507063400 | 54 | 337 | 0.0 | 0.0 | 0.00 | 0.16 | 0.00 | 93 | 1012.2 |
| 20260507062859 | 54 | 0 | 0.0 | 0.0 | 0.00 | 0.16 | 0.00 | 93 | 1012.3 |
| 20260507062400 | 54 | 135 | 0.0 | 0.0 | 0.00 | 0.16 | 0.00 | 93 | 1012.2 |
| 20260507061859 | 54 | 135 | 0.0 | 0.0 | 0.00 | 0.16 | 0.00 | 93 | 1012.1 |
| 20260507060858 | 53 | 22 | 0.0 | 0.0 | 0.00 | 0.16 | 0.00 | 93 | 1012.0 |
| 20260507060400 | 53 | 112 | 0.0 | 0.0 | 0.00 | 0.16 | 0.00 | 93 | 1011.9 |
| 20260507055857 | 53 | 22 | 0.0 | 0.0 | 0.00 | 0.16 | 0.00 | 93 | 1011.8 |
| 20260507055358 | 53 | 22 | 0.0 | 0.0 | 0.00 | 0.16 | 0.00 | 94 | 1011.9 |
| 20260507054857 | 53 | 22 | 0.0 | 0.0 | 0.00 | 0.16 | 0.00 | 94 | 1011.8 |
| 20260507053856 | 52 | 22 | 0.0 | 0.0 | 0.00 | 0.16 | 0.00 | 94 | 1011.8 |
| 20260507053358 | 52 | 67 | 0.0 | 0.0 | 0.00 | 0.16 | 0.00 | 94 | 1011.6 |
| 20260507052856 | 52 | 157 | 0.0 | 0.0 | 0.00 | 0.16 | 0.00 | 94 | 1011.7 |
| 20260507051855 | 52 | 157 | 0.0 | 0.0 | 0.00 | 0.16 | 0.00 | 93 | 1011.7 |
| 20260507050855 | 51 | 202 | 0.0 | 0.0 | 0.00 | 0.16 | 0.00 | 93 | 1011.5 |
| 20260507050355 | 51 | 180 | 0.0 | 0.0 | 0.00 | 0.16 | 0.00 | 93 | 1011.3 |
| 20260507045854 | 51 | 135 | 0.0 | 0.0 | 0.00 | 0.16 | 0.00 | 93 | 1011.3 |
| 20260507045356 | 51 | 112 | 0.0 | 0.0 | 0.00 | 0.16 | 0.00 | 93 | 1011.4 |
| 20260507044853 | 51 | 67 | 0.0 | 0.0 | 0.00 | 0.16 | 0.00 | 93 | 1011.2 |
| 20260507044355 | 51 | 67 | 0.0 | 0.0 | 0.00 | 0.16 | 0.00 | 93 | 1011.2 |
| 20260507044118 | 51 | 67 | 0.0 | 0.0 | 0.00 | 0.16 | 0.00 | 93 | 1011.1 |
| 20260507043853 | 51 | 67 | 0.0 | 0.0 | 0.00 | 0.16 | 0.00 | 93 | 1011.1 |
| 20260507043355 | 50 | 67 | 0.0 | 0.0 | 0.00 | 0.16 | 0.00 | 93 | 1011.0 |
| 20260507042852 | 50 | 22 | 0.0 | 0.0 | 0.00 | 0.16 | 0.00 | 93 | 1011.1 |
| 20260507042354 | 50 | 90 | 0.0 | 0.0 | 0.02 | 0.16 | 0.00 | 93 | 1011.0 |
| 20260507041852 | 50 | 90 | 0.0 | 0.0 | 0.02 | 0.16 | 0.00 | 93 | 1011.0 |
| 20260507041355 | 50 | 22 | 0.0 | 0.0 | 0.02 | 0.16 | 0.00 | 93 | 1011.0 |
| 20260507040851 | 50 | 315 | 0.0 | 0.0 | 0.02 | 0.16 | 0.00 | 93 | 1011.0 |
| 20260507040353 | 50 | 22 | 0.0 | 0.0 | 0.02 | 0.16 | 0.00 | 93 | 1010.9 |
| 20260507035851 | 51 | 22 | 0.0 | 0.0 | 0.02 | 0.16 | 0.00 | 93 | 1010.9 |
| 20260507034850 | 51 | 22 | 0.0 | 0.0 | 0.02 | 0.16 | 0.00 | 93 | 1010.9 |
| 20260507034356 | 51 | 22 | 0.0 | 0.0 | 0.02 | 0.16 | 0.00 | 93 | 1010.8 |
| 20260507033850 | 51 | 157 | 0.0 | 0.0 | 0.02 | 0.16 | 0.00 | 93 | 1010.8 |
| 20260507033353 | 51 | 157 | 0.0 | 0.0 | 0.02 | 0.16 | 0.00 | 93 | 1010.9 |
| 20260507032849 | 51 | 45 | 0.0 | 0.0 | 0.02 | 0.16 | 0.00 | 93 | 1010.9 |
| 20260507032353 | 51 | 0 | 0.0 | 0.0 | 0.00 | 0.14 | 0.00 | 93 | 1010.7 |
| 20260507031848 | 51 | 180 | 0.0 | 0.0 | 0.00 | 0.14 | 0.00 | 93 | 1010.7 |
| 20260507030848 | 51 | 247 | 0.0 | 0.0 | 0.00 | 0.14 | 0.00 | 93 | 1010.7 |
| 20260507030351 | 51 | 247 | 0.0 | 0.0 | 0.00 | 0.14 | 0.00 | 93 | 1010.8 |
| 20260507025847 | 51 | 247 | 0.0 | 0.0 | 0.00 | 0.14 | 0.00 | 93 | 1010.7 |
| 20260507024847 | 51 | 22 | 0.0 | 0.0 | 0.00 | 0.14 | 0.00 | 93 | 1010.8 |
| 20260507023846 | 51 | 22 | 0.0 | 0.0 | 0.00 | 0.14 | 0.00 | 93 | 1010.7 |
| 20260507023349 | 51 | 90 | 0.0 | 0.0 | 0.00 | 0.14 | 0.00 | 93 | 1010.8 |
| 20260507022846 | 51 | 90 | 0.0 | 0.0 | 0.00 | 0.14 | 0.00 | 93 | 1010.8 |
| 20260507022353 | 51 | 22 | 0.0 | 0.0 | 0.00 | 0.14 | 0.00 | 93 | 1010.8 |
| 20260507021845 | 51 | 22 | 0.0 | 0.0 | 0.00 | 0.14 | 0.00 | 93 | 1010.7 |
| 20260507020844 | 52 | 157 | 0.9 | 0.9 | 0.00 | 0.14 | 0.00 | 92 | 1010.5 |
| 20260507020348 | 52 | 180 | 0.0 | 0.0 | 0.00 | 0.14 | 0.00 | 92 | 1010.6 |
| 20260507015844 | 52 | 180 | 0.0 | 0.0 | 0.00 | 0.14 | 0.00 | 92 | 1010.8 |
| 20260507015345 | 51 | 180 | 0.0 | 0.0 | 0.00 | 0.14 | 0.00 | 92 | 1010.8 |
| 20260507014844 | 51 | 202 | 0.0 | 0.0 | 0.00 | 0.14 | 0.00 | 92 | 1010.7 |
| 20260507014348 | 52 | 22 | 0.0 | 0.0 | 0.00 | 0.14 | 0.00 | 92 | 1010.8 |
| 20260507013843 | 52 | 22 | 0.0 | 0.0 | 0.00 | 0.14 | 0.00 | 92 | 1010.6 |
| 20260507012842 | 52 | 22 | 0.0 | 0.0 | 0.00 | 0.14 | 0.00 | 92 | 1010.8 |
| 20260507012352 | 52 | 112 | 0.0 | 0.0 | 0.00 | 0.14 | 0.00 | 92 | 1010.7 |
| 20260507011842 | 52 | 22 | 0.0 | 0.0 | 0.00 | 0.14 | 0.00 | 92 | 1010.7 |
| 20260507011345 | 52 | 22 | 0.0 | 0.0 | 0.00 | 0.14 | 0.00 | 92 | 1010.7 |
| 20260507010841 | 53 | 22 | 0.0 | 0.0 | 0.00 | 0.14 | 0.00 | 92 | 1010.7 |
| 20260507005840 | 53 | 135 | 0.0 | 0.0 | 0.00 | 0.14 | 0.00 | 92 | 1010.7 |
| 20260507004840 | 53 | 90 | 0.0 | 0.0 | 0.00 | 0.14 | 0.00 | 92 | 1010.7 |
| 20260507003839 | 53 | 90 | 0.0 | 0.0 | 0.00 | 0.14 | 0.00 | 92 | 1010.7 |
| 20260507003346 | 53 | 112 | 0.0 | 0.0 | 0.00 | 0.14 | 0.00 | 92 | 1010.7 |
| 20260507002839 | 53 | 112 | 0.0 | 0.0 | 0.00 | 0.14 | 0.00 | 92 | 1010.9 |
| 20260507001838 | 53 | 22 | 0.0 | 0.0 | 0.00 | 0.14 | 0.00 | 92 | 1011.0 |
| 20260507001342 | 53 | 112 | 0.0 | 0.0 | 0.00 | 0.14 | 0.00 | 91 | 1010.9 |
| 20260507000838 | 53 | 22 | 0.0 | 0.0 | 0.00 | 0.14 | 0.00 | 91 | 1010.8 |
| 20260507000350 | 53 | 0 | 0.0 | 0.0 | 0.00 | 0.14 | 0.00 | 91 | 1010.9 |
| 20260506235837 | 54 | 22 | 0.0 | 0.0 | 0.00 | 0.14 | 0.00 | 91 | 1010.9 |
| 20260506235341 | 54 | 22 | 0.0 | 0.0 | 0.00 | 0.14 | 0.00 | 91 | 1010.9 |
| 20260506234836 | 54 | 67 | 0.0 | 0.0 | 0.00 | 0.14 | 0.00 | 91 | 1011.0 |
| 20260506233836 | 54 | 112 | 0.0 | 0.0 | 0.00 | 0.14 | 0.00 | 90 | 1011.1 |
| 20260506233339 | 55 | 112 | 0.0 | 0.0 | 0.00 | 0.14 | 0.00 | 90 | 1010.9 |
| 20260506232835 | 55 | 22 | 0.0 | 0.0 | 0.00 | 0.14 | 0.00 | 90 | 1010.9 |
| 20260506231835 | 55 | 315 | 0.0 | 0.0 | 0.00 | 0.14 | 0.00 | 90 | 1011.0 |
| 20260506231344 | 55 | 22 | 0.0 | 0.0 | 0.00 | 0.14 | 0.00 | 90 | 1011.1 |
| 20260506230834 | 55 | 292 | 0.0 | 0.0 | 0.00 | 0.14 | 0.00 | 89 | 1010.8 |
| 20260506225834 | 55 | 225 | 0.0 | 0.0 | 0.00 | 0.14 | 0.00 | 90 | 1011.2 |
| 20260506225336 | 55 | 202 | 0.0 | 0.0 | 0.00 | 0.14 | 0.00 | 90 | 1011.2 |
| 20260506224833 | 55 | 112 | 0.0 | 0.0 | 0.00 | 0.14 | 0.00 | 90 | 1011.1 |
| 20260506224342 | 55 | 112 | 0.0 | 0.9 | 0.00 | 0.14 | 0.00 | 90 | 1011.0 |
| 20260506223832 | 55 | 225 | 0.9 | 0.9 | 0.00 | 0.14 | 0.00 | 90 | 1011.1 |
| 20260506222917 | 55 | 292 | 0.0 | 0.9 | 0.00 | 0.14 | 0.00 | 91 | 1011.0 |
| 20260506222832 | 55 | 292 | 0.0 | 0.9 | 0.00 | 0.14 | 0.00 | 91 | 1011.0 |
| 20260506221906 | 55 | 225 | 1.7 | 1.7 | 0.00 | 0.14 | 0.00 | 91 | 1010.9 |
| 20260506221831 | 55 | 225 | 1.7 | 1.7 | 0.00 | 0.14 | 0.00 | 91 | 1010.9 |
| 20260506221333 | 55 | 202 | 0.0 | 0.0 | 0.00 | 0.14 | 0.00 | 91 | 1010.8 |
| 20260506220831 | 55 | 247 | 0.0 | 0.0 | 0.00 | 0.14 | 0.00 | 91 | 1010.8 |
| 20260506220416 | 55 | 247 | 0.0 | 0.0 | 0.00 | 0.14 | 0.00 | 91 | 1010.9 |
| 20260506220333 | 55 | 247 | 0.0 | 0.0 | 0.00 | 0.14 | 0.00 | 91 | 1010.9 |
| 20260506215830 | 56 | 180 | 0.0 | 0.0 | 0.00 | 0.14 | 0.00 | 91 | 1010.6 |
| 20260506215332 | 56 | 202 | 0.0 | 0.0 | 0.00 | 0.14 | 0.00 | 91 | 1010.6 |
| 20260506214830 | 56 | 135 | 0.0 | 0.0 | 0.00 | 0.14 | 0.00 | 91 | 1010.5 |
| 20260506214330 | 56 | 45 | 0.0 | 0.0 | 0.00 | 0.14 | 0.00 | 91 | 1010.4 |
| 20260506213829 | 56 | 135 | 0.0 | 0.0 | 0.00 | 0.14 | 0.00 | 91 | 1010.5 |
| 20260506213330 | 56 | 135 | 0.0 | 0.0 | 0.00 | 0.14 | 0.00 | 91 | 1010.7 |
| 20260506212828 | 56 | 292 | 0.0 | 0.0 | 0.00 | 0.14 | 0.00 | 91 | 1010.7 |
| 20260506212329 | 56 | 22 | 0.0 | 0.0 | 0.00 | 0.14 | 0.00 | 91 | 1010.7 |
| 20260506211828 | 57 | 22 | 0.0 | 0.0 | 0.00 | 0.14 | 0.00 | 91 | 1010.6 |
| 20260506211330 | 57 | 180 | 0.0 | 0.0 | 0.00 | 0.14 | 0.00 | 91 | 1010.6 |
| 20260506210828 | 57 | 112 | 0.0 | 0.0 | 0.00 | 0.14 | 0.00 | 91 | 1010.6 |
| 20260506210328 | 57 | 247 | 0.0 | 0.0 | 0.00 | 0.14 | 0.00 | 91 | 1010.6 |
| 20260506205827 | 57 | 315 | 0.0 | 0.0 | 0.02 | 0.14 | 0.00 | 91 | 1010.6 |
| 20260506205329 | 57 | 112 | 0.0 | 0.0 | 0.02 | 0.14 | 0.00 | 91 | 1010.3 |
| 20260506204826 | 57 | 90 | 0.0 | 0.0 | 0.02 | 0.14 | 0.00 | 91 | 1010.5 |
| 20260506204328 | 57 | 90 | 0.0 | 0.0 | 0.02 | 0.14 | 0.00 | 91 | 1010.6 |
| 20260506203826 | 57 | 0 | 0.0 | 0.9 | 0.02 | 0.14 | 0.00 | 91 | 1010.6 |
| 20260506203326 | 57 | 22 | 0.9 | 0.9 | 0.02 | 0.14 | 0.00 | 90 | 1010.2 |
| 20260506202825 | 57 | 315 | 0.0 | 0.0 | 0.02 | 0.14 | 0.00 | 90 | 1010.2 |
| 20260506202326 | 57 | 112 | 0.0 | 0.0 | 0.02 | 0.14 | 0.00 | 90 | 1010.3 |
| 20260506201824 | 57 | 135 | 0.0 | 0.0 | 0.02 | 0.14 | 0.00 | 89 | 1010.2 |
| 20260506200824 | 57 | 112 | 0.0 | 0.0 | 0.02 | 0.14 | 0.00 | 89 | 1010.2 |
| 20260506200325 | 57 | 90 | 0.0 | 0.0 | 0.04 | 0.14 | 0.00 | 89 | 1010.2 |
| 20260506195823 | 57 | 157 | 0.0 | 0.0 | 0.02 | 0.12 | 0.00 | 89 | 1010.2 |
| 20260506195324 | 57 | 225 | 0.0 | 0.0 | 0.02 | 0.12 | 0.00 | 89 | 1010.1 |
| 20260506194823 | 57 | 202 | 0.0 | 0.0 | 0.02 | 0.12 | 0.00 | 88 | 1010.1 |
| 20260506194323 | 57 | 270 | 0.0 | 0.0 | 0.02 | 0.12 | 0.00 | 88 | 1010.0 |
| 20260506193822 | 58 | 315 | 0.0 | 0.0 | 0.02 | 0.12 | 0.00 | 88 | 1009.9 |
| 20260506193323 | 58 | 315 | 0.0 | 0.0 | 0.02 | 0.12 | 0.00 | 88 | 1009.8 |
| 20260506192822 | 58 | 292 | 0.0 | 0.0 | 0.02 | 0.12 | 0.00 | 88 | 1009.8 |
| 20260506192324 | 58 | 45 | 0.0 | 0.0 | 0.02 | 0.12 | 0.00 | 88 | 1009.8 |
| 20260506191821 | 58 | 315 | 0.0 | 0.0 | 0.02 | 0.12 | 0.00 | 88 | 1009.9 |
| 20260506190820 | 58 | 315 | 0.0 | 0.0 | 0.00 | 0.10 | 0.00 | 88 | 1009.9 |
| 20260506190322 | 58 | 270 | 0.0 | 0.0 | 0.00 | 0.10 | 0.00 | 88 | 1009.8 |
| 20260506185820 | 58 | 270 | 0.0 | 0.0 | 0.00 | 0.10 | 0.00 | 88 | 1009.9 |
| 20260506185321 | 58 | 292 | 0.0 | 0.0 | 0.00 | 0.10 | 0.00 | 88 | 1009.9 |
| 20260506184819 | 58 | 45 | 0.0 | 0.0 | 0.00 | 0.10 | 0.00 | 88 | 1009.7 |
| 20260506184508 | 58 | 45 | 0.0 | 0.0 | 0.00 | 0.10 | 0.00 | 88 | 1009.4 |
| 20260506184320 | 58 | 45 | 0.0 | 0.0 | 0.00 | 0.10 | 0.00 | 88 | 1009.4 |
| 20260506183819 | 59 | 112 | 0.0 | 0.0 | 0.00 | 0.10 | 0.00 | 88 | 1009.1 |
| 20260506183354 | 59 | 247 | 0.0 | 0.0 | 0.00 | 0.10 | 0.00 | 87 | 1009.2 |
| 20260506183321 | 59 | 247 | 0.0 | 0.0 | 0.00 | 0.10 | 0.00 | 87 | 1009.2 |
| 20260506182818 | 59 | 90 | 0.0 | 0.0 | 0.00 | 0.10 | 0.00 | 87 | 1009.1 |
| 20260506182320 | 59 | 0 | 0.0 | 0.0 | 0.00 | 0.10 | 0.00 | 87 | 1009.0 |
| 20260506181818 | 59 | 22 | 0.0 | 0.0 | 0.00 | 0.10 | 0.00 | 87 | 1009.0 |
| 20260506180817 | 59 | 22 | 0.0 | 0.0 | 0.00 | 0.10 | 0.00 | 87 | 1009.0 |
| 20260506180318 | 60 | 22 | 0.0 | 0.9 | 0.00 | 0.10 | 0.00 | 86 | 1008.8 |
| 20260506175816 | 60 | 45 | 0.0 | 0.0 | 0.00 | 0.10 | 0.00 | 85 | 1008.8 |
| 20260506175317 | 60 | 45 | 0.0 | 0.0 | 0.00 | 0.10 | 0.00 | 84 | 1008.8 |
| 20260506174816 | 60 | 90 | 0.0 | 0.0 | 0.00 | 0.10 | 0.00 | 84 | 1008.8 |
| 20260506174317 | 61 | 112 | 0.0 | 0.0 | 0.00 | 0.10 | 0.00 | 83 | 1008.7 |
| 20260506173815 | 61 | 112 | 0.0 | 0.0 | 0.00 | 0.10 | 0.00 | 83 | 1009.0 |
| 20260506172815 | 62 | 247 | 0.0 | 0.0 | 0.00 | 0.10 | 0.00 | 81 | 1008.9 |
| 20260506172316 | 62 | 247 | 0.0 | 0.0 | 0.00 | 0.10 | 0.00 | 81 | 1008.8 |
| 20260506171845 | 62 | 247 | 0.0 | 0.0 | 0.00 | 0.10 | 0.00 | 80 | 1008.9 |
| 20260506171814 | 62 | 247 | 0.0 | 0.0 | 0.00 | 0.10 | 0.00 | 80 | 1008.9 |
| 20260506170814 | 62 | 225 | 0.9 | 0.9 | 0.00 | 0.10 | 0.00 | 80 | 1008.9 |
| 20260506170317 | 63 | 247 | 0.0 | 0.0 | 0.00 | 0.10 | 0.00 | 80 | 1009.0 |
| 20260506165813 | 63 | 202 | 0.0 | 0.0 | 0.00 | 0.10 | 0.00 | 81 | 1008.9 |
| 20260506165314 | 63 | 225 | 0.0 | 0.0 | 0.00 | 0.10 | 0.00 | 81 | 1008.9 |
| 20260506164812 | 62 | 225 | 0.0 | 0.0 | 0.00 | 0.10 | 0.00 | 81 | 1009.0 |
| 20260506163812 | 63 | 202 | 2.6 | 2.6 | 0.00 | 0.10 | 0.00 | 80 | 1009.0 |
| 20260506163313 | 63 | 202 | 2.6 | 2.6 | 0.00 | 0.10 | 0.00 | 80 | 1009.0 |
| 20260506162811 | 63 | 180 | 0.0 | 0.0 | 0.00 | 0.10 | 0.00 | 80 | 1009.1 |
| 20260506162314 | 64 | 22 | 0.0 | 0.0 | 0.00 | 0.10 | 0.00 | 81 | 1009.2 |
| 20260506161811 | 64 | 315 | 0.0 | 1.7 | 0.00 | 0.10 | 0.00 | 81 | 1009.3 |
| 20260506160810 | 64 | 202 | 0.0 | 0.0 | 0.00 | 0.10 | 0.00 | 82 | 1009.3 |
| 20260506160311 | 63 | 270 | 0.0 | 0.9 | 0.00 | 0.10 | 0.00 | 82 | 1009.3 |
| 20260506155810 | 63 | 202 | 0.9 | 1.7 | 0.00 | 0.10 | 0.00 | 83 | 1009.4 |
| 20260506155310 | 62 | 202 | 1.7 | 2.6 | 0.00 | 0.10 | 0.00 | 84 | 1009.4 |
| 20260506154809 | 63 | 270 | 0.0 | 0.9 | 0.00 | 0.10 | 0.00 | 84 | 1009.7 |
| 20260506153809 | 62 | 247 | 0.9 | 1.7 | 0.00 | 0.10 | 0.00 | 85 | 1009.5 |
| 20260506153310 | 62 | 247 | 1.7 | 1.7 | 0.00 | 0.10 | 0.00 | 87 | 1009.7 |
| 20260506152808 | 61 | 135 | 0.0 | 0.9 | 0.00 | 0.10 | 0.00 | 87 | 1009.8 |
| 20260506152310 | 61 | 45 | 0.0 | 0.0 | 0.00 | 0.10 | 0.00 | 87 | 1009.8 |
| 20260506151807 | 61 | 337 | 0.0 | 0.0 | 0.00 | 0.10 | 0.00 | 87 | 1009.8 |
| 20260506151311 | 60 | 135 | 0.0 | 0.0 | 0.02 | 0.10 | 0.00 | 87 | 1009.7 |
| 20260506150807 | 60 | 247 | 0.0 | 0.0 | 0.02 | 0.10 | 0.00 | 87 | 1009.8 |
| 20260506150308 | 59 | 157 | 0.0 | 0.0 | 0.02 | 0.10 | 0.00 | 87 | 1009.7 |
| 20260506145806 | 59 | 0 | 0.0 | 0.0 | 0.02 | 0.10 | 0.00 | 87 | 1009.8 |
| 20260506145307 | 59 | 112 | 0.0 | 0.0 | 0.02 | 0.10 | 0.00 | 87 | 1009.8 |
| 20260506144806 | 59 | 45 | 0.0 | 0.0 | 0.02 | 0.10 | 0.00 | 87 | 1009.8 |
| 20260506144306 | 59 | 315 | 0.0 | 0.0 | 0.02 | 0.10 | 0.00 | 87 | 1009.8 |
| 20260506143805 | 59 | 45 | 0.0 | 0.0 | 0.02 | 0.10 | 0.00 | 87 | 1009.8 |
| 20260506143306 | 59 | 292 | 0.0 | 0.0 | 0.02 | 0.10 | 0.00 | 87 | 1009.9 |
| 20260506142805 | 59 | 225 | 0.0 | 0.0 | 0.02 | 0.10 | 0.00 | 87 | 1009.8 |
| 20260506142306 | 59 | 292 | 0.0 | 0.0 | 0.02 | 0.10 | 0.00 | 87 | 1009.8 |
| 20260506141804 | 59 | 225 | 0.0 | 0.0 | 0.00 | 0.08 | 0.00 | 87 | 1009.9 |
| 20260506141305 | 59 | 292 | 0.0 | 0.0 | 0.00 | 0.08 | 0.00 | 87 | 1009.9 |
| 20260506140803 | 60 | 247 | 0.0 | 0.0 | 0.00 | 0.08 | 0.00 | 87 | 1009.9 |
| 20260506135803 | 60 | 180 | 0.0 | 0.0 | 0.00 | 0.08 | 0.00 | 86 | 1010.0 |
| 20260506135306 | 60 | 292 | 0.0 | 0.0 | 0.00 | 0.08 | 0.00 | 86 | 1010.0 |
| 20260506134802 | 61 | 315 | 0.0 | 2.6 | 0.00 | 0.08 | 0.00 | 86 | 1010.2 |
| 20260506134303 | 61 | 315 | 2.6 | 2.6 | 0.00 | 0.08 | 0.00 | 86 | 1010.4 |
| 20260506133802 | 61 | 315 | 0.0 | 0.9 | 0.00 | 0.08 | 0.00 | 86 | 1010.3 |
| 20260506133302 | 61 | 315 | 0.9 | 0.9 | 0.00 | 0.08 | 0.00 | 86 | 1010.4 |
| 20260506132801 | 61 | 45 | 0.0 | 0.0 | 0.00 | 0.08 | 0.00 | 87 | 1010.4 |
| 20260506132302 | 61 | 337 | 0.0 | 1.7 | 0.00 | 0.08 | 0.00 | 87 | 1010.4 |
| 20260506131801 | 61 | 292 | 0.0 | 1.7 | 0.00 | 0.08 | 0.00 | 87 | 1010.4 |
| 20260506131301 | 61 | 0 | 0.0 | 0.0 | 0.00 | 0.08 | 0.00 | 87 | 1010.4 |
| 20260506130800 | 61 | 292 | 0.0 | 0.0 | 0.00 | 0.08 | 0.00 | 87 | 1010.3 |
| 20260506130301 | 60 | 292 | 0.0 | 0.0 | 0.00 | 0.08 | 0.00 | 87 | 1010.4 |
| 20260506125759 | 60 | 135 | 0.0 | 0.0 | 0.00 | 0.08 | 0.00 | 87 | 1010.4 |
| 20260506124759 | 60 | 22 | 0.0 | 0.0 | 0.00 | 0.08 | 0.00 | 87 | 1010.5 |
| 20260506124300 | 60 | 315 | 0.0 | 0.0 | 0.00 | 0.08 | 0.00 | 87 | 1010.5 |
| 20260506123758 | 60 | 315 | 0.0 | 0.0 | 0.00 | 0.08 | 0.00 | 87 | 1010.6 |
| 20260506123259 | 60 | 0 | 0.0 | 0.0 | 0.00 | 0.08 | 0.00 | 87 | 1010.6 |
| 20260506122758 | 60 | 270 | 0.0 | 0.0 | 0.00 | 0.08 | 0.00 | 87 | 1010.7 |
| 20260506122258 | 60 | 0 | 0.0 | 0.0 | 0.00 | 0.08 | 0.00 | 87 | 1010.5 |
| 20260506121757 | 60 | 292 | 0.0 | 0.0 | 0.00 | 0.08 | 0.00 | 87 | 1010.7 |
| 20260506121258 | 60 | 45 | 0.0 | 0.0 | 0.00 | 0.08 | 0.00 | 87 | 1010.6 |
| 20260506120757 | 60 | 180 | 0.0 | 0.0 | 0.00 | 0.08 | 0.00 | 87 | 1010.5 |
| 20260506120259 | 59 | 292 | 0.0 | 0.0 | 0.00 | 0.08 | 0.00 | 87 | 1010.5 |
| 20260506115756 | 59 | 315 | 0.0 | 0.0 | 0.00 | 0.08 | 0.00 | 87 | 1010.5 |
| 20260506114755 | 59 | 270 | 0.0 | 0.0 | 0.00 | 0.08 | 0.00 | 87 | 1010.6 |
| 20260506113755 | 59 | 225 | 0.0 | 0.0 | 0.00 | 0.08 | 0.00 | 87 | 1010.6 |
| 20260506112754 | 59 | 292 | 0.0 | 0.0 | 0.00 | 0.08 | 0.00 | 87 | 1010.8 |
| 20260506111754 | 59 | 315 | 0.9 | 0.9 | 0.00 | 0.08 | 0.00 | 87 | 1010.8 |
| 20260506111254 | 60 | 67 | 0.0 | 0.0 | 0.00 | 0.08 | 0.00 | 87 | 1010.8 |
| 20260506110753 | 60 | 292 | 0.0 | 0.0 | 0.00 | 0.08 | 0.00 | 87 | 1010.9 |
| 20260506110254 | 59 | 292 | 0.0 | 0.0 | 0.02 | 0.08 | 0.00 | 87 | 1010.9 |
| 20260506105753 | 60 | 292 | 0.0 | 0.0 | 0.02 | 0.08 | 0.00 | 87 | 1011.0 |
| 20260506105255 | 60 | 67 | 0.0 | 0.0 | 0.02 | 0.08 | 0.00 | 87 | 1010.9 |
| 20260506104752 | 59 | 315 | 0.0 | 0.0 | 0.02 | 0.08 | 0.00 | 87 | 1011.0 |
| 20260506103751 | 60 | 270 | 0.0 | 0.0 | 0.04 | 0.08 | 0.00 | 87 | 1011.2 |
| 20260506103255 | 60 | 180 | 0.0 | 0.0 | 0.04 | 0.08 | 0.00 | 87 | 1011.2 |
| 20260506102751 | 60 | 337 | 0.0 | 0.0 | 0.04 | 0.08 | 0.00 | 87 | 1011.2 |
| 20260506102255 | 60 | 337 | 0.0 | 0.0 | 0.04 | 0.08 | 0.00 | 87 | 1011.1 |
| 20260506101750 | 60 | 315 | 0.0 | 0.0 | 0.04 | 0.08 | 0.00 | 87 | 1011.1 |
| 20260506100750 | 60 | 225 | 0.0 | 1.7 | 0.02 | 0.06 | 0.00 | 86 | 1011.3 |
| 20260506095749 | 60 | 315 | 0.0 | 0.0 | 0.06 | 0.06 | 0.00 | 85 | 1011.4 |
| 20260506095250 | 61 | 270 | 0.0 | 0.0 | 0.06 | 0.06 | 0.00 | 85 | 1011.4 |
| 20260506094749 | 61 | 315 | 0.0 | 0.0 | 0.06 | 0.06 | 0.00 | 84 | 1011.4 |
| 20260506094249 | 61 | 315 | 0.0 | 0.0 | 0.04 | 0.04 | 0.00 | 84 | 1011.4 |
| 20260506093748 | 61 | 225 | 0.0 | 0.0 | 0.04 | 0.04 | 0.00 | 85 | 1011.4 |
| 20260506093249 | 61 | 292 | 0.0 | 0.0 | 0.04 | 0.04 | 0.00 | 84 | 1011.4 |
| 20260506092748 | 61 | 225 | 0.0 | 0.0 | 0.04 | 0.04 | 0.00 | 84 | 1011.5 |
| 20260506091747 | 61 | 225 | 0.9 | 0.9 | 0.04 | 0.04 | 0.00 | 85 | 1011.5 |
| 20260506091248 | 61 | 67 | 0.0 | 0.0 | 0.04 | 0.04 | 0.00 | 85 | 1011.5 |
| 20260506090746 | 60 | 157 | 0.0 | 0.0 | 0.04 | 0.04 | 0.00 | 85 | 1011.4 |
| 20260506090247 | 60 | 112 | 0.0 | 0.0 | 0.04 | 0.04 | 0.00 | 84 | 1011.4 |
| 20260506085746 | 60 | 247 | 0.0 | 1.7 | 0.00 | 0.00 | 0.00 | 84 | 1011.4 |
| 20260506085249 | 60 | 225 | 1.7 | 1.7 | 0.00 | 0.00 | 0.00 | 84 | 1011.6 |
| 20260506084745 | 60 | 202 | 0.0 | 0.0 | 0.00 | 0.00 | 0.00 | 83 | 1011.5 |
| 20260506084246 | 61 | 180 | 0.0 | 0.0 | 0.00 | 0.00 | 0.00 | 83 | 1011.5 |
| 20260506083745 | 61 | 180 | 0.0 | 0.0 | 0.00 | 0.00 | 0.00 | 83 | 1011.4 |
| 20260506083245 | 61 | 135 | 0.0 | 0.0 | 0.00 | 0.00 | 0.00 | 83 | 1011.2 |
| 20260506082744 | 61 | 135 | 0.0 | 0.0 | 0.00 | 0.00 | 0.00 | 83 | 1011.1 |
| 20260506082245 | 61 | 112 | 0.0 | 0.0 | 0.00 | 0.00 | 0.00 | 83 | 1011.2 |
| 20260506081744 | 61 | 0 | 0.0 | 0.0 | 0.00 | 0.00 | 0.00 | 83 | 1011.1 |
| 20260506080743 | 61 | 180 | 0.0 | 0.9 | 0.00 | 0.00 | 0.00 | 82 | 1010.9 |
| 20260506080244 | 61 | 135 | 0.0 | 0.0 | 0.00 | 0.00 | 0.00 | 83 | 1010.9 |
| 20260506073242 | 60 | 90 | 0.0 | 0.0 | 0.00 | 0.00 | 0.00 | 84 | 1010.8 |
| 20260506072741 | 60 | 225 | 0.0 | 0.0 | 0.00 | 0.00 | 0.00 | 85 | 1010.9 |
| 20260506072241 | 60 | 225 | 0.0 | 0.9 | 0.00 | 0.00 | 0.00 | 86 | 1010.9 |
| 20260506071740 | 59 | 112 | 0.9 | 0.9 | 0.00 | 0.00 | 0.00 | 87 | 1011.0 |
| 20260506070740 | 57 | 135 | 0.0 | 0.0 | 0.00 | 0.00 | 0.00 | 89 | 1011.1 |
| 20260506070241 | 57 | 202 | 0.0 | 0.0 | 0.00 | 0.00 | 0.00 | 89 | 1011.3 |